Regional Weather Roundup
Issued by NWS

Home | Current Version | Previous Version | Text Only | Print | Product List | Glossary Off
Versions: 1 2 3 4 5 6 7 8 9 10 11 12 13 14 15 16 17 18 19 20 21 22 23 24 25 26 27 28 29 30 31 32 33 34 35 36 37 38 39 40 41 42 43 44 45 46 47 48 49 50

000
ASUS43 KTOP 051659
RWRKS

WEATHER ROUNDUP FOR KANSAS
NATIONAL WEATHER SERVICE GOODLAND KS
1100 AM CST THU MAR 05 2015

NOTE:  "FAIR" INDICATES FEW OR NO CLOUDS BELOW 12,000 FEET WITH NO
SIGNIFICANT WEATHER AND/OR OBSTRUCTIONS TO VISIBILITY.

KSZ001>006-013>018-027>032-041>047-051800-
NORTHWEST KANSAS

CITY           SKY/WX    TMP DP  RH WIND       PRES   REMARKS
GOODLAND       SUNNY     36  15  42 SW10      30.31S WCI  28
HAYS           SUNNY     32  10  40 SW5       30.43F
HILL CITY      SUNNY     28  11  48 S6        30.41F
RUSSELL        FAIR      30  13  49 W7        30.43F
$$

KSZ061>065-074>080-084>089-051800-
SOUTHWEST KANSAS

CITY           SKY/WX    TMP DP  RH WIND       PRES   REMARKS
DODGE CITY     SUNNY     35  15  44 W16       30.42F WCI  25
ELKHART          N/A     35  19  52 W8          N/A
GARDEN CITY    SUNNY     34  17  50 W14       30.39F WCI  25
GREAT BEND     SUNNY     34  16  47 W8        30.44F
LIBERAL        SUNNY     28  19  69 SW17      30.43F WCI  16
$$

KSZ066>073-081>083-090>101-051800-
SOUTHEAST KANSAS

CITY           SKY/WX    TMP DP  RH WIND       PRES   REMARKS
CHANUTE        SUNNY     29   9  43 CALM      30.57F
COFFEYVILLE    SUNNY     30  12  47 NE5       30.59F
HUTCHINSON     SUNNY     29  14  53 S9        30.49F
MEDICINE LODGE   N/A     37  12  35 W13       30.49F WCI  29
NEWTON         SUNNY     25  10  54 SE10      30.51S WCI  15
PARSONS        SUNNY     31  14  49 VRB3      30.59S
WICHITA INTL   FAIR      33  14  45 S9        30.51F
WICHITA JABRA  SUNNY     31  12  45 S8        30.51F
WICHITA MCCONL SUNNY     34  11  38 S10       30.51F WCI  26
WINFIELD       SUNNY     34  12  40 S10       30.55F WCI  26
$$

KSZ007>012-019>026-033>040-048>060-102>105-051800-
NORTHEAST KANSAS

CITY           SKY/WX    TMP DP  RH WIND       PRES   REMARKS
CONCORDIA      SUNNY     25   5  42 SE9       30.50F
EMPORIA        SUNNY     25   7  46 SE6       30.54F
LAWRENCE       SUNNY     23   0  36 VRB5      30.59F
MANHATTAN      SUNNY     25   3  38 E6        30.55F
OLATHE IND     SUNNY     22   2  42 NE6       30.58F
OLATHE EXE     SUNNY     22  -2  35 VRB5      30.56F
SALINA         SUNNY     29   9  43 SE9       30.51F
TOPEKA BILLARD SUNNY     23   1  38 MISG      30.59F
TOPEKA FORBES  SUNNY     24   2  38 N5        30.56F
$$


USA.gov is the U.S. government's official web portal to all federal, state and local government web resources and services.